Frontier, North Dakota
Current Conditions -  °F | °C
As of 8:53 PM on Tuesday 21 Oct 2014 (Local Time) from KFAR Reporting Station
Clear Clear  
Wind Chill: 58°   Ceiling: Unl
Heat Index: 58°   Visibility: 10mi
Dew Point: 41°   Wind: 23mph
Humidity: 53%   Direction: 150°SSE
Pressure: 29.91"   Gusts: 36mph
Location:  46.8079°N, 96.8643°W
Report Text: KFAR 220153Z 15020G31KT 10SM CLR 14/05 A2991 RMK AO2 PK WND 15038/0121 SLP132 T01440050
Loading
Personal Weather Stations






























Interactive Weather Map
Tropical Storm Tracking
New forecast layout! Learn more

10-Day Weather Forecast

Advertisements
Track Severe Weather on mobile